Time,TemperatureF,DewpointF,PressureIn,WindDirection,WindDirectionDegrees,WindSpeedMPH,WindSpeedGustMPH,Humidity,HourlyPrecipIn,Conditions,Clouds,dailyrainin,SoftwareType,DateUTC
2013-08-24 00:01:00,75.2,69.1,29.97,ESE,113,0.4,0.4,81,0.00,,,0.00,WUHU216HW,2013-08-24 05:01:00,
2013-08-24 00:06:00,75.2,69.1,29.97,ESE,113,0.7,0.9,81,0.00,,,0.00,WUHU216HW,2013-08-24 05:06:00,
2013-08-24 00:11:00,75.2,69.1,29.97,ESE,113,0.6,0.9,81,0.00,,,0.00,WUHU216HW,2013-08-24 05:11:00,
2013-08-24 00:16:00,75.1,69.3,29.97,ESE,113,1.8,1.8,82,0.00,,,0.00,WUHU216HW,2013-08-24 05:16:00,
2013-08-24 00:21:00,74.9,68.8,29.97,ESE,113,0.7,1.8,81,0.00,,,0.00,WUHU216HW,2013-08-24 05:21:00,
2013-08-24 00:26:00,74.9,69.1,29.98,ESE,113,1.8,1.8,82,0.00,,,0.00,WUHU216HW,2013-08-24 05:26:00,
2013-08-24 00:31:00,74.9,69.1,29.98,SE,135,0.6,1.8,82,0.00,,,0.00,WUHU216HW,2013-08-24 05:31:00,
2013-08-24 00:36:00,74.9,69.1,29.98,SE,135,0.4,1.8,82,0.00,,,0.00,WUHU216HW,2013-08-24 05:36:00,
2013-08-24 00:41:00,74.9,69.1,29.98,SE,135,0.0,0.7,82,0.00,,,0.00,WUHU216HW,2013-08-24 05:41:00,
2013-08-24 00:46:00,74.7,69.0,29.98,SE,135,0.0,0.0,82,0.00,,,0.00,WUHU216HW,2013-08-24 05:46:00,
2013-08-24 00:51:00,74.5,68.8,29.98,ESE,113,1.1,1.1,82,0.00,,,0.00,WUHU216HW,2013-08-24 05:51:00,
2013-08-24 00:56:00,74.5,68.8,29.98,ESE,113,0.7,1.1,82,0.00,,,0.00,WUHU216HW,2013-08-24 05:56:00,
2013-08-24 01:01:00,74.5,69.0,29.98,ESE,113,0.1,1.1,83,0.00,,,0.00,WUHU216HW,2013-08-24 06:01:00,
2013-08-24 01:06:00,74.3,68.9,29.98,ESE,113,0.4,0.9,83,0.00,,,0.00,WUHU216HW,2013-08-24 06:06:00,
2013-08-24 01:11:00,74.2,68.7,29.98,ESE,113,0.6,0.7,83,0.00,,,0.00,WUHU216HW,2013-08-24 06:11:00,
2013-08-24 01:16:00,74.2,68.7,29.98,ESE,113,0.0,1.1,83,0.00,,,0.00,WUHU216HW,2013-08-24 06:16:00,
2013-08-24 01:21:00,74.0,68.5,29.98,ESE,113,0.1,1.1,83,0.00,,,0.00,WUHU216HW,2013-08-24 06:21:00,
2013-08-24 01:26:00,74.0,68.5,29.98,ESE,113,0.7,0.7,83,0.00,,,0.00,WUHU216HW,2013-08-24 06:26:00,
2013-08-24 01:31:00,73.8,68.3,29.98,ESE,113,1.1,1.1,83,0.00,,,0.00,WUHU216HW,2013-08-24 06:31:00,
2013-08-24 01:36:00,73.8,68.3,29.98,ESE,113,0.2,1.3,83,0.00,,,0.00,WUHU216HW,2013-08-24 06:36:00,
2013-08-24 01:41:00,73.8,68.7,29.98,ESE,113,1.3,1.3,84,0.00,,,0.00,WUHU216HW,2013-08-24 06:41:00,
2013-08-24 01:46:00,73.6,68.5,29.98,ESE,113,1.8,1.8,84,0.00,,,0.00,WUHU216HW,2013-08-24 06:46:00,
2013-08-24 01:51:00,73.4,68.3,29.98,ENE,68,2.2,2.9,84,0.00,,,0.00,WUHU216HW,2013-08-24 06:51:00,
2013-08-24 01:56:00,73.4,68.7,29.99,ESE,113,1.6,2.9,85,0.00,,,0.00,WUHU216HW,2013-08-24 06:56:00,
2013-08-24 02:01:00,73.4,68.3,29.99,SE,135,1.1,1.8,84,0.00,,,0.00,WUHU216HW,2013-08-24 07:01:00,
2013-08-24 02:06:00,73.4,68.7,29.99,ESE,113,0.9,2.5,85,0.00,,,0.00,WUHU216HW,2013-08-24 07:06:00,
2013-08-24 02:11:00,73.4,68.7,29.99,East,90,2.9,2.9,85,0.00,,,0.00,WUHU216HW,2013-08-24 07:11:00,
2013-08-24 02:16:00,73.4,68.7,29.99,SE,135,0.3,2.9,85,0.00,,,0.00,WUHU216HW,2013-08-24 07:16:00,
2013-08-24 02:21:00,73.3,68.5,29.99,SE,135,1.8,2.5,85,0.00,,,0.00,WUHU216HW,2013-08-24 07:21:00,
2013-08-24 02:26:00,73.3,68.5,29.99,SE,135,1.8,1.8,85,0.00,,,0.00,WUHU216HW,2013-08-24 07:26:00,
2013-08-24 02:31:00,73.3,68.5,29.99,ESE,113,1.3,2.2,85,0.00,,,0.00,WUHU216HW,2013-08-24 07:31:00,
2013-08-24 02:36:00,73.1,68.3,29.99,ESE,113,1.8,2.2,85,0.00,,,0.00,WUHU216HW,2013-08-24 07:36:00,
2013-08-24 02:41:00,73.1,68.3,29.99,ESE,113,1.1,1.8,85,0.00,,,0.00,WUHU216HW,2013-08-24 07:41:00,
2013-08-24 02:46:00,73.1,68.3,29.99,ESE,113,0.4,1.1,85,0.00,,,0.00,WUHU216HW,2013-08-24 07:46:00,
2013-08-24 02:51:00,73.1,68.3,29.99,ESE,113,0.2,1.1,85,0.00,,,0.00,WUHU216HW,2013-08-24 07:51:00,
2013-08-24 02:56:00,72.9,67.8,29.99,ESE,113,0.4,0.4,84,0.00,,,0.00,WUHU216HW,2013-08-24 07:56:00,
2013-08-24 03:01:00,72.7,67.6,29.99,SE,135,0.7,1.1,84,0.00,,,0.00,WUHU216HW,2013-08-24 08:01:00,
2013-08-24 03:06:00,72.7,67.6,29.99,ESE,113,1.1,1.1,84,0.00,,,0.00,WUHU216HW,2013-08-24 08:06:00,
2013-08-24 03:11:00,72.5,67.4,29.99,ESE,113,0.7,1.1,84,0.00,,,0.00,WUHU216HW,2013-08-24 08:11:00,
2013-08-24 03:16:00,72.5,67.4,30.00,SE,135,1.6,1.6,84,0.00,,,0.00,WUHU216HW,2013-08-24 08:16:00,
2013-08-24 03:21:00,72.4,67.6,30.00,SE,135,1.8,1.8,85,0.00,,,0.00,WUHU216HW,2013-08-24 08:21:00,
2013-08-24 03:25:00,72.4,67.6,30.00,ESE,113,1.3,2.0,85,0.00,,,0.00,WUHU216HW,2013-08-24 08:25:00,
2013-08-24 03:30:00,72.4,67.6,30.00,ESE,113,1.5,2.0,85,0.00,,,0.00,WUHU216HW,2013-08-24 08:30:00,
2013-08-24 03:35:00,72.4,67.6,30.00,ESE,113,1.3,2.0,85,0.00,,,0.00,WUHU216HW,2013-08-24 08:35:00,
2013-08-24 03:40:00,72.2,67.8,30.00,ESE,113,1.1,1.3,86,0.00,,,0.00,WUHU216HW,2013-08-24 08:40:00,
2013-08-24 03:45:00,72.2,67.4,30.00,ESE,113,1.4,1.6,85,0.00,,,0.00,WUHU216HW,2013-08-24 08:45:00,
2013-08-24 03:50:00,72.2,67.8,30.00,ESE,113,1.9,2.0,86,0.00,,,0.00,WUHU216HW,2013-08-24 08:50:00,
2013-08-24 03:55:00,72.2,67.8,30.01,ESE,113,2.5,2.5,86,0.00,,,0.00,WUHU216HW,2013-08-24 08:55:00,
2013-08-24 04:00:00,72.2,67.8,30.01,SE,128,1.7,2.5,86,0.00,,,0.00,WUHU216HW,2013-08-24 09:00:00,
2013-08-24 04:05:00,72.2,67.8,30.01,East,100,0.8,2.2,86,0.00,,,0.00,WUHU216HW,2013-08-24 09:05:00,
2013-08-24 04:10:00,72.0,67.6,30.01,ESE,113,0.8,1.1,86,0.00,,,0.00,WUHU216HW,2013-08-24 09:10:00,
2013-08-24 04:15:00,72.0,67.6,30.01,ESE,113,1.7,1.8,86,0.00,,,0.00,WUHU216HW,2013-08-24 09:15:00,
2013-08-24 04:20:00,72.0,67.6,30.01,ESE,113,1.6,1.8,86,0.00,,,0.00,WUHU216HW,2013-08-24 09:20:00,
2013-08-24 04:25:00,71.8,67.4,30.01,SE,129,2.0,2.9,86,0.00,,,0.00,WUHU216HW,2013-08-24 09:25:00,
2013-08-24 04:30:00,71.8,67.4,30.01,ESE,113,1.8,2.9,86,0.00,,,0.00,WUHU216HW,2013-08-24 09:30:00,
2013-08-24 04:35:00,71.6,67.6,30.01,East,90,2.5,2.5,87,0.00,,,0.00,WUHU216HW,2013-08-24 09:35:00,
2013-08-24 04:40:00,71.6,67.6,30.01,SE,135,0.8,2.5,87,0.00,,,0.00,WUHU216HW,2013-08-24 09:40:00,
2013-08-24 04:45:00,71.6,67.6,30.01,SE,135,0.2,1.6,87,0.00,,,0.00,WUHU216HW,2013-08-24 09:45:00,
2013-08-24 04:50:00,71.6,67.6,30.02,SE,135,0.9,0.9,87,0.00,,,0.00,WUHU216HW,2013-08-24 09:50:00,
2013-08-24 04:55:00,71.5,67.4,30.02,SE,135,0.0,0.9,87,0.00,,,0.00,WUHU216HW,2013-08-24 09:55:00,
2013-08-24 05:00:00,71.5,67.4,30.02,SE,135,0.3,0.4,87,0.00,,,0.00,WUHU216HW,2013-08-24 10:00:00,
2013-08-24 05:05:00,71.5,67.4,30.02,SE,135,0.9,0.9,87,0.00,,,0.00,WUHU216HW,2013-08-24 10:05:00,
2013-08-24 05:10:00,71.3,67.5,30.02,ESE,113,0.6,1.1,88,0.00,,,0.00,WUHU216HW,2013-08-24 10:10:00,
2013-08-24 05:15:00,71.3,67.5,30.02,ESE,113,0.4,1.1,88,0.00,,,0.00,WUHU216HW,2013-08-24 10:15:00,
2013-08-24 05:20:00,71.1,67.3,30.02,ESE,113,1.0,1.6,88,0.00,,,0.00,WUHU216HW,2013-08-24 10:20:00,
2013-08-24 05:25:00,71.1,67.3,30.02,ESE,113,1.1,1.6,88,0.00,,,0.00,WUHU216HW,2013-08-24 10:25:00,
2013-08-24 05:30:00,71.1,67.3,30.02,ESE,113,0.9,1.1,88,0.00,,,0.00,WUHU216HW,2013-08-24 10:30:00,
2013-08-24 05:35:00,71.1,67.3,30.02,ESE,113,0.9,1.6,88,0.00,,,0.00,WUHU216HW,2013-08-24 10:35:00,
2013-08-24 05:40:00,71.3,67.5,30.02,ESE,113,0.6,1.6,88,0.00,,,0.00,WUHU216HW,2013-08-24 10:40:00,
2013-08-24 05:45:00,71.1,67.3,30.02,SE,135,0.4,0.7,88,0.00,,,0.00,WUHU216HW,2013-08-24 10:45:00,
2013-08-24 05:50:00,71.1,67.3,30.02,East,90,0.7,0.7,88,0.00,,,0.00,WUHU216HW,2013-08-24 10:50:00,
2013-08-24 05:55:00,71.1,67.3,30.02,SE,135,1.8,1.8,88,0.00,,,0.00,WUHU216HW,2013-08-24 10:55:00,
2013-08-24 06:00:00,71.1,67.3,30.02,SE,135,1.8,1.8,88,0.00,,,0.00,WUHU216HW,2013-08-24 11:00:00,
2013-08-24 06:05:00,71.1,67.3,30.02,ESE,113,1.1,1.8,88,0.00,,,0.00,WUHU216HW,2013-08-24 11:05:00,
2013-08-24 06:10:00,71.1,67.3,30.02,ESE,113,1.1,1.8,88,0.00,,,0.00,WUHU216HW,2013-08-24 11:10:00,
2013-08-24 06:15:00,71.1,67.3,30.02,ESE,113,0.4,1.8,88,0.00,,,0.00,WUHU216HW,2013-08-24 11:15:00,
2013-08-24 06:20:00,71.1,67.7,30.03,ESE,113,1.6,1.6,89,0.00,,,0.00,WUHU216HW,2013-08-24 11:20:00,
2013-08-24 06:25:00,71.1,67.7,30.03,ESE,113,1.8,1.8,89,0.00,,,0.00,WUHU216HW,2013-08-24 11:25:00,
2013-08-24 06:30:00,71.1,67.7,30.03,ESE,119,1.1,1.8,89,0.00,,,0.00,WUHU216HW,2013-08-24 11:30:00,
2013-08-24 06:35:00,71.1,67.7,30.03,ESE,113,1.1,1.8,89,0.00,,,0.00,WUHU216HW,2013-08-24 11:35:00,
2013-08-24 06:40:00,71.1,67.7,30.04,SSW,203,1.3,1.8,89,0.00,,,0.00,WUHU216HW,2013-08-24 11:40:00,
2013-08-24 06:45:00,71.1,67.7,30.04,ESE,113,1.8,1.8,89,0.00,,,0.00,WUHU216HW,2013-08-24 11:45:00,
2013-08-24 06:50:00,71.1,67.7,30.04,East,100,1.3,1.8,89,0.00,,,0.00,WUHU216HW,2013-08-24 11:50:00,
2013-08-24 06:55:00,71.1,67.7,30.04,ESE,113,1.5,1.8,89,0.00,,,0.00,WUHU216HW,2013-08-24 11:55:00,
2013-08-24 07:00:00,71.1,67.7,30.04,ESE,113,1.8,2.5,89,0.00,,,0.00,WUHU216HW,2013-08-24 12:00:00,
2013-08-24 07:05:00,71.1,67.7,30.04,ESE,113,1.3,2.5,89,0.00,,,0.00,WUHU216HW,2013-08-24 12:05:00,
2013-08-24 07:10:00,71.1,67.7,30.04,SE,135,2.2,2.5,89,0.00,,,0.00,WUHU216HW,2013-08-24 12:10:00,
2013-08-24 07:15:00,71.3,67.9,30.05,ESE,113,1.1,2.2,89,0.00,,,0.00,WUHU216HW,2013-08-24 12:15:00,
2013-08-24 07:20:00,71.3,67.9,30.05,ESE,113,2.1,2.2,89,0.00,,,0.00,WUHU216HW,2013-08-24 12:20:00,
2013-08-24 07:25:00,71.6,68.2,30.05,ESE,113,1.6,2.2,89,0.00,,,0.00,WUHU216HW,2013-08-24 12:25:00,
2013-08-24 07:30:00,71.6,68.2,30.05,SE,135,1.1,2.2,89,0.00,,,0.00,WUHU216HW,2013-08-24 12:30:00,
2013-08-24 07:35:00,71.8,68.4,30.06,ESE,113,1.1,2.2,89,0.00,,,0.00,WUHU216HW,2013-08-24 12:35:00,
2013-08-24 07:40:00,72.2,68.8,30.06,ESE,113,0.8,2.2,89,0.00,,,0.00,WUHU216HW,2013-08-24 12:40:00,
2013-08-24 07:45:00,72.4,68.9,30.06,ESE,116,0.7,2.2,89,0.00,,,0.00,WUHU216HW,2013-08-24 12:45:00,
2013-08-24 07:50:00,72.7,69.3,30.06,ESE,113,1.8,2.5,89,0.00,,,0.00,WUHU216HW,2013-08-24 12:50:00,
2013-08-24 07:55:00,73.1,69.3,30.06,SE,135,0.2,2.5,88,0.00,,,0.00,WUHU216HW,2013-08-24 12:55:00,
2013-08-24 08:00:00,73.3,69.8,30.06,SE,135,1.8,1.8,89,0.00,,,0.00,WUHU216HW,2013-08-24 13:00:00,
2013-08-24 08:05:00,73.6,70.2,30.06,ESE,120,1.9,2.5,89,0.00,,,0.00,WUHU216HW,2013-08-24 13:05:00,
2013-08-24 08:10:00,73.8,70.4,30.06,ESE,123,2.3,3.4,89,0.00,,,0.00,WUHU216HW,2013-08-24 13:10:00,
2013-08-24 08:15:00,74.2,70.4,30.06,East,90,1.8,3.4,88,0.00,,,0.00,WUHU216HW,2013-08-24 13:15:00,
2013-08-24 08:20:00,74.5,70.7,30.06,ESE,113,2.2,3.4,88,0.00,,,0.00,WUHU216HW,2013-08-24 13:20:00,
2013-08-24 08:25:00,74.9,70.8,30.06,ESE,113,1.6,3.4,87,0.00,,,0.00,WUHU216HW,2013-08-24 13:25:00,
2013-08-24 08:30:00,75.2,71.2,30.06,ESE,113,2.6,2.9,87,0.00,,,0.00,WUHU216HW,2013-08-24 13:30:00,
2013-08-24 08:35:00,75.6,71.5,30.07,ESE,113,1.8,2.9,87,0.00,,,0.00,WUHU216HW,2013-08-24 13:35:00,
2013-08-24 08:40:00,76.0,71.5,30.07,ESE,113,1.8,2.0,86,0.00,,,0.00,WUHU216HW,2013-08-24 13:40:00,
2013-08-24 08:45:00,76.3,71.5,30.07,ESE,113,1.1,2.0,85,0.00,,,0.00,WUHU216HW,2013-08-24 13:45:00,
2013-08-24 08:50:00,77.0,72.2,30.07,ESE,118,0.8,1.8,85,0.00,,,0.00,WUHU216HW,2013-08-24 13:50:00,
2013-08-24 08:55:00,77.6,72.7,30.07,ESE,113,0.9,3.4,85,0.00,,,0.00,WUHU216HW,2013-08-24 13:55:00,
2013-08-24 09:00:00,77.8,72.5,30.07,SE,125,0.4,3.4,84,0.00,,,0.00,WUHU216HW,2013-08-24 14:00:00,
2013-08-24 09:05:00,78.1,72.5,30.07,SSE,159,0.8,1.6,83,0.00,,,0.00,WUHU216HW,2013-08-24 14:05:00,
2013-08-24 09:10:00,78.5,72.9,30.07,East,90,1.3,2.2,83,0.00,,,0.00,WUHU216HW,2013-08-24 14:10:00,
2013-08-24 09:15:00,78.8,73.3,30.07,SE,135,0.8,2.2,83,0.00,,,0.00,WUHU216HW,2013-08-24 14:15:00,
2013-08-24 09:20:00,79.2,73.3,30.07,ENE,68,0.9,1.6,82,0.00,,,0.00,WUHU216HW,2013-08-24 14:20:00,
2013-08-24 09:25:00,79.6,73.3,30.07,ENE,68,0.9,1.1,81,0.00,,,0.00,WUHU216HW,2013-08-24 14:25:00,
2013-08-24 09:30:00,79.9,73.6,30.07,SSE,158,2.5,2.5,81,0.00,,,0.00,WUHU216HW,2013-08-24 14:30:00,
2013-08-24 09:35:00,80.3,74.0,30.07,ESE,113,0.9,2.5,81,0.00,,,0.00,WUHU216HW,2013-08-24 14:35:00,
2013-08-24 09:40:00,80.8,74.2,30.07,SE,135,3.4,3.4,80,0.00,,,0.00,WUHU216HW,2013-08-24 14:40:00,
2013-08-24 09:45:00,81.2,74.5,30.07,SSW,203,1.3,3.4,80,0.00,,,0.00,WUHU216HW,2013-08-24 14:45:00,
2013-08-24 09:50:00,81.4,74.4,30.07,SE,142,0.6,2.2,79,0.00,,,0.00,WUHU216HW,2013-08-24 14:50:00,
2013-08-24 09:55:00,81.7,74.6,30.07,WSW,248,2.0,2.0,79,0.00,,,0.00,WUHU216HW,2013-08-24 14:55:00,
2013-08-24 10:00:00,82.1,74.6,30.07,SSE,152,0.9,2.0,78,0.00,,,0.00,WUHU216HW,2013-08-24 15:00:00,
2013-08-24 10:05:00,82.1,74.2,30.07,ESE,107,1.7,2.5,77,0.00,,,0.00,WUHU216HW,2013-08-24 15:05:00,
2013-08-24 10:10:00,82.3,74.0,30.07,ESE,113,3.0,4.7,76,0.00,,,0.00,WUHU216HW,2013-08-24 15:10:00,
2013-08-24 10:15:00,82.6,74.7,30.08,SSE,158,1.1,4.7,77,0.00,,,0.00,WUHU216HW,2013-08-24 15:15:00,
2013-08-24 10:20:00,83.2,75.3,30.08,SSE,167,0.6,3.1,77,0.00,,,0.00,WUHU216HW,2013-08-24 15:20:00,
2013-08-24 10:25:00,83.5,74.7,30.08,ESE,113,1.8,3.1,75,0.00,,,0.00,WUHU216HW,2013-08-24 15:25:00,
2013-08-24 10:30:00,83.5,75.2,30.08,SSE,158,1.6,2.0,76,0.00,,,0.00,WUHU216HW,2013-08-24 15:30:00,
2013-08-24 10:35:00,83.9,75.1,30.08,East,90,1.8,2.7,75,0.00,,,0.00,WUHU216HW,2013-08-24 15:35:00,
2013-08-24 10:40:00,84.2,75.4,30.08,SE,142,2.0,2.7,75,0.00,,,0.00,WUHU216HW,2013-08-24 15:40:00,
2013-08-24 10:45:00,84.8,76.0,30.08,WSW,248,1.5,2.7,75,0.00,,,0.00,WUHU216HW,2013-08-24 15:45:00,
2013-08-24 10:50:00,85.1,76.0,30.08,ESE,113,1.6,3.6,74,0.00,,,0.00,WUHU216HW,2013-08-24 15:50:00,
2013-08-24 10:55:00,85.5,75.9,30.08,SSW,203,1.0,3.6,73,0.00,,,0.00,WUHU216HW,2013-08-24 15:55:00,
2013-08-24 11:00:00,85.7,76.1,30.08,ESE,102,1.9,3.8,73,0.00,,,0.00,WUHU216HW,2013-08-24 16:00:00,
2013-08-24 11:05:00,85.7,74.9,30.08,SE,129,3.7,4.7,70,0.00,,,0.00,WUHU216HW,2013-08-24 16:05:00,
2013-08-24 11:10:00,85.9,75.9,30.08,SSE,158,0.9,4.7,72,0.00,,,0.00,WUHU216HW,2013-08-24 16:10:00,
2013-08-24 11:15:00,85.9,75.9,30.08,SSE,158,3.4,3.4,72,0.00,,,0.00,WUHU216HW,2013-08-24 16:15:00,
2013-08-24 11:20:00,86.0,76.1,30.08,WSW,248,1.8,3.4,72,0.00,,,0.00,WUHU216HW,2013-08-24 16:20:00,
2013-08-24 11:25:00,86.2,76.2,30.08,SSE,158,3.4,3.4,72,0.00,,,0.00,WUHU216HW,2013-08-24 16:25:00,
2013-08-24 11:30:00,86.4,76.0,30.08,SSW,203,1.1,3.4,71,0.00,,,0.00,WUHU216HW,2013-08-24 16:30:00,
2013-08-24 11:35:00,86.4,76.0,30.07,SE,132,1.1,2.7,71,0.00,,,0.00,WUHU216HW,2013-08-24 16:35:00,
2013-08-24 11:40:00,86.6,76.2,30.07,SSE,158,1.6,2.9,71,0.00,,,0.00,WUHU216HW,2013-08-24 16:40:00,
2013-08-24 11:45:00,86.9,76.5,30.08,West,267,0.8,2.9,71,0.00,,,0.00,WUHU216HW,2013-08-24 16:45:00,
2013-08-24 11:50:00,87.1,76.2,30.08,SE,138,2.3,3.4,70,0.00,,,0.00,WUHU216HW,2013-08-24 16:50:00,
2013-08-24 11:55:00,87.3,76.4,30.07,SSE,158,2.7,3.4,70,0.00,,,0.00,WUHU216HW,2013-08-24 16:55:00,
2013-08-24 12:00:00,87.3,75.0,30.07,SW,225,4.7,5.4,67,0.00,,,0.00,WUHU216HW,2013-08-24 17:00:00,
2013-08-24 12:05:00,87.1,75.8,30.07,SSW,207,1.4,5.4,69,0.00,,,0.00,WUHU216HW,2013-08-24 17:05:00,
2013-08-24 12:10:00,87.5,76.5,30.07,South,175,1.5,3.8,70,0.00,,,0.00,WUHU216HW,2013-08-24 17:10:00,
2013-08-24 12:15:00,87.7,75.8,30.07,SSE,165,3.0,4.9,68,0.00,,,0.00,WUHU216HW,2013-08-24 17:15:00,
2013-08-24 12:20:00,87.5,76.1,30.07,SE,125,1.1,4.9,69,0.00,,,0.00,WUHU216HW,2013-08-24 17:20:00,
2013-08-24 12:25:00,87.7,76.2,30.07,SE,135,2.9,4.0,69,0.00,,,0.00,WUHU216HW,2013-08-24 17:25:00,
2013-08-24 12:30:00,88.0,75.7,30.07,SW,226,2.6,2.9,67,0.00,,,0.00,WUHU216HW,2013-08-24 17:30:00,
2013-08-24 12:35:00,88.2,76.8,30.06,South,176,1.4,2.7,69,0.00,,,0.00,WUHU216HW,2013-08-24 17:35:00,
2013-08-24 12:40:00,88.6,76.7,30.06,SW,216,1.0,2.2,68,0.00,,,0.00,WUHU216HW,2013-08-24 17:40:00,
2013-08-24 12:45:00,88.7,76.0,30.06,NE,45,2.0,2.0,66,0.00,,,0.00,WUHU216HW,2013-08-24 17:45:00,
2013-08-24 12:50:00,88.6,75.8,30.06,ESE,113,3.4,3.4,66,0.00,,,0.00,WUHU216HW,2013-08-24 17:50:00,
2013-08-24 12:55:00,88.4,74.7,30.06,ESE,113,4.0,4.0,64,0.00,,,0.00,WUHU216HW,2013-08-24 17:55:00,
2013-08-24 13:00:00,88.2,75.4,30.06,SE,135,1.3,4.0,66,0.00,,,0.00,WUHU216HW,2013-08-24 18:00:00,
2013-08-24 13:05:00,88.4,75.2,30.06,ESE,113,2.0,3.6,65,0.00,,,0.00,WUHU216HW,2013-08-24 18:05:00,
2013-08-24 13:10:00,88.2,75.9,30.06,West,270,1.8,3.6,67,0.00,,,0.00,WUHU216HW,2013-08-24 18:10:00,
2013-08-24 13:15:00,88.4,75.6,30.05,South,178,2.0,3.1,66,0.00,,,0.00,WUHU216HW,2013-08-24 18:15:00,
2013-08-24 13:20:00,88.6,75.3,30.05,ESE,113,2.5,2.7,65,0.00,,,0.00,WUHU216HW,2013-08-24 18:20:00,
2013-08-24 13:25:00,88.6,75.3,30.06,ESE,113,2.2,2.5,65,0.00,,,0.00,WUHU216HW,2013-08-24 18:25:00,
2013-08-24 13:30:00,88.4,74.7,30.05,SSE,158,1.2,3.4,64,0.00,,,0.00,WUHU216HW,2013-08-24 18:30:00,
2013-08-24 13:35:00,88.4,75.2,30.05,ESE,113,2.0,3.4,65,0.00,,,0.00,WUHU216HW,2013-08-24 18:35:00,
2013-08-24 13:40:00,88.6,74.9,30.05,SE,135,1.8,2.0,64,0.00,,,0.00,WUHU216HW,2013-08-24 18:40:00,
2013-08-24 13:45:00,88.7,75.4,30.05,WSW,248,1.8,2.9,65,0.00,,,0.00,WUHU216HW,2013-08-24 18:45:00,
2013-08-24 13:50:00,88.7,74.5,30.05,SW,235,3.0,3.4,63,0.00,,,0.00,WUHU216HW,2013-08-24 18:50:00,
2013-08-24 13:55:00,88.9,75.6,30.05,SSW,203,2.5,3.4,65,0.00,,,0.00,WUHU216HW,2013-08-24 18:55:00,
2013-08-24 14:00:00,88.9,74.3,30.05,ESE,113,4.0,4.0,62,0.00,,,0.00,WUHU216HW,2013-08-24 19:00:00,
2013-08-24 14:05:00,88.6,74.3,30.05,East,90,2.5,4.0,63,0.00,,,0.00,WUHU216HW,2013-08-24 19:05:00,
2013-08-24 14:10:00,88.6,74.3,30.05,SSW,203,1.6,4.0,63,0.00,,,0.00,WUHU216HW,2013-08-24 19:10:00,
2013-08-24 14:15:00,88.7,75.0,30.05,SSE,158,2.5,2.5,64,0.00,,,0.00,WUHU216HW,2013-08-24 19:15:00,
2013-08-24 14:20:00,88.9,75.2,30.05,WSW,243,1.1,2.5,64,0.00,,,0.00,WUHU216HW,2013-08-24 19:20:00,
2013-08-24 14:25:00,88.7,74.1,30.05,SE,141,1.0,2.2,62,0.00,,,0.00,WUHU216HW,2013-08-24 19:25:00,
2013-08-24 14:30:00,88.4,73.8,30.04,SE,135,3.4,3.4,62,0.00,,,0.00,WUHU216HW,2013-08-24 19:30:00,
2013-08-24 14:35:00,88.4,73.8,30.05,ESE,113,3.8,3.8,62,0.00,,,0.00,WUHU216HW,2013-08-24 19:35:00,
2013-08-24 14:40:00,88.9,75.2,30.04,ESE,113,1.6,3.8,64,0.00,,,0.00,WUHU216HW,2013-08-24 19:40:00,
2013-08-24 14:45:00,89.1,74.9,30.05,South,180,1.3,1.8,63,0.00,,,0.00,WUHU216HW,2013-08-24 19:45:00,
2013-08-24 14:50:00,89.3,74.6,30.04,South,180,1.5,3.6,62,0.00,,,0.00,WUHU216HW,2013-08-24 19:50:00,
2013-08-24 14:55:00,89.5,74.3,30.04,SE,135,2.5,3.6,61,0.00,,,0.00,WUHU216HW,2013-08-24 19:55:00,
2013-08-24 15:00:00,89.3,74.6,30.04,SE,135,1.1,3.1,62,0.00,,,0.00,WUHU216HW,2013-08-24 20:00:00,
2013-08-24 15:05:00,88.9,73.4,30.04,SE,135,1.8,3.1,60,0.00,,,0.00,WUHU216HW,2013-08-24 20:05:00,
2013-08-24 15:10:00,88.6,73.0,30.04,SSE,166,1.3,3.6,60,0.00,,,0.00,WUHU216HW,2013-08-24 20:10:00,
2013-08-24 15:15:00,88.4,73.8,30.04,ESE,122,1.4,3.6,62,0.00,,,0.00,WUHU216HW,2013-08-24 20:15:00,
2013-08-24 15:20:00,88.6,73.4,30.04,SW,225,3.4,3.4,61,0.00,,,0.00,WUHU216HW,2013-08-24 20:20:00,
2013-08-24 15:25:00,88.9,73.8,30.04,West,272,2.0,3.4,61,0.00,,,0.00,WUHU216HW,2013-08-24 20:25:00,
2013-08-24 15:30:00,88.9,74.3,30.04,WSW,248,2.2,2.2,62,0.00,,,0.00,WUHU216HW,2013-08-24 20:30:00,
2013-08-24 15:35:00,89.3,74.2,30.04,SE,135,2.2,3.1,61,0.00,,,0.00,WUHU216HW,2013-08-24 20:35:00,
2013-08-24 15:40:00,89.3,73.1,30.04,ESE,113,2.5,3.1,59,0.00,,,0.00,WUHU216HW,2013-08-24 20:40:00,
2013-08-24 15:45:00,89.5,74.3,30.03,ESE,116,1.5,2.7,61,0.00,,,0.00,WUHU216HW,2013-08-24 20:45:00,
2013-08-24 15:50:00,89.5,73.8,30.03,ESE,113,2.0,2.7,60,0.00,,,0.00,WUHU216HW,2013-08-24 20:50:00,
2013-08-24 15:55:00,89.6,74.4,30.03,SSW,203,1.3,2.5,61,0.00,,,0.00,WUHU216HW,2013-08-24 20:55:00,
2013-08-24 16:00:00,89.5,73.3,30.03,ESE,113,1.8,2.7,59,0.00,,,0.00,WUHU216HW,2013-08-24 21:00:00,
2013-08-24 16:05:00,89.5,73.8,30.03,SE,135,2.2,2.7,60,0.00,,,0.00,WUHU216HW,2013-08-24 21:05:00,
2013-08-24 16:10:00,89.3,73.6,30.03,ESE,113,2.9,3.8,60,0.00,,,0.00,WUHU216HW,2013-08-24 21:10:00,
2013-08-24 16:15:00,88.7,72.6,30.03,SE,135,2.7,3.8,59,0.00,,,0.00,WUHU216HW,2013-08-24 21:15:00,
2013-08-24 16:20:00,88.4,72.3,30.03,SSE,158,1.1,2.7,59,0.00,,,0.00,WUHU216HW,2013-08-24 21:20:00,
2013-08-24 16:25:00,88.4,72.8,30.02,ESE,113,2.2,2.7,60,0.00,,,0.00,WUHU216HW,2013-08-24 21:25:00,
2013-08-24 16:30:00,88.2,72.2,30.03,ESE,113,3.3,4.5,59,0.00,,,0.00,WUHU216HW,2013-08-24 21:30:00,
2013-08-24 16:35:00,88.2,72.2,30.02,SE,135,1.8,4.5,59,0.00,,,0.00,WUHU216HW,2013-08-24 21:35:00,
2013-08-24 16:40:00,88.2,72.2,30.03,SE,129,1.7,3.8,59,0.00,,,0.00,WUHU216HW,2013-08-24 21:40:00,
2013-08-24 16:45:00,88.4,72.3,30.02,ESE,120,2.7,3.6,59,0.00,,,0.00,WUHU216HW,2013-08-24 21:45:00,
2013-08-24 16:50:00,88.4,72.8,30.02,ESE,113,0.9,3.6,60,0.00,,,0.00,WUHU216HW,2013-08-24 21:50:00,
2013-08-24 16:55:00,88.4,73.3,30.02,ESE,119,1.1,2.5,61,0.00,,,0.00,WUHU216HW,2013-08-24 21:55:00,
2013-08-24 17:00:00,88.4,72.8,30.02,SE,135,0.6,3.8,60,0.00,,,0.00,WUHU216HW,2013-08-24 22:00:00,
2013-08-24 17:05:00,88.4,72.8,30.02,ENE,67,1.0,3.8,60,0.00,,,0.00,WUHU216HW,2013-08-24 22:05:00,
2013-08-24 17:10:00,88.2,71.7,30.02,SE,135,3.6,3.6,58,0.00,,,0.00,WUHU216HW,2013-08-24 22:10:00,
2013-08-24 17:15:00,88.0,71.5,30.02,ESE,113,2.2,3.8,58,0.00,,,0.00,WUHU216HW,2013-08-24 22:15:00,
2013-08-24 17:20:00,87.7,72.2,30.02,SE,135,2.9,3.8,60,0.00,,,0.00,WUHU216HW,2013-08-24 22:20:00,
2013-08-24 17:25:00,87.7,72.2,30.02,SE,135,3.4,3.4,60,0.00,,,0.00,WUHU216HW,2013-08-24 22:25:00,
2013-08-24 17:30:00,87.5,71.5,30.03,SE,135,4.9,5.4,59,0.00,,,0.00,WUHU216HW,2013-08-24 22:30:00,
2013-08-24 17:35:00,87.5,70.9,30.02,ESE,113,5.1,5.4,58,0.00,,,0.00,WUHU216HW,2013-08-24 22:35:00,
2013-08-24 17:40:00,87.3,70.7,30.02,ESE,113,1.7,5.1,58,0.00,,,0.00,WUHU216HW,2013-08-24 22:40:00,
2013-08-24 17:45:00,87.3,71.3,30.02,SE,135,2.3,3.8,59,0.00,,,0.00,WUHU216HW,2013-08-24 22:45:00,
2013-08-24 17:50:00,87.3,71.3,30.02,ESE,113,2.2,3.4,59,0.00,,,0.00,WUHU216HW,2013-08-24 22:50:00,
2013-08-24 17:55:00,87.1,71.1,30.02,SSE,158,3.4,3.4,59,0.00,,,0.00,WUHU216HW,2013-08-24 22:55:00,
2013-08-24 18:00:00,87.1,71.1,30.02,SE,135,2.0,4.0,59,0.00,,,0.00,WUHU216HW,2013-08-24 23:00:00,
2013-08-24 18:05:00,87.1,71.1,30.02,SE,135,2.2,4.0,59,0.00,,,0.00,WUHU216HW,2013-08-24 23:05:00,
2013-08-24 18:10:00,86.9,70.9,30.02,SE,127,2.4,3.8,59,0.00,,,0.00,WUHU216HW,2013-08-24 23:10:00,
2013-08-24 18:15:00,86.8,71.3,30.02,ESE,113,2.9,3.8,60,0.00,,,0.00,WUHU216HW,2013-08-24 23:15:00,
2013-08-24 18:20:00,86.6,71.1,30.02,SE,135,2.2,3.4,60,0.00,,,0.00,WUHU216HW,2013-08-24 23:20:00,
2013-08-24 18:25:00,86.2,70.7,30.02,ESE,113,4.0,4.0,60,0.00,,,0.00,WUHU216HW,2013-08-24 23:25:00,
2013-08-24 18:30:00,86.0,71.0,30.02,SE,135,4.0,4.0,61,0.00,,,0.00,WUHU216HW,2013-08-24 23:30:00,
2013-08-24 18:35:00,85.9,70.8,30.02,ESE,120,1.5,4.0,61,0.00,,,0.00,WUHU216HW,2013-08-24 23:35:00,
2013-08-24 18:40:00,85.7,70.8,30.02,ESE,113,3.9,4.7,61,0.00,,,0.00,WUHU216HW,2013-08-24 23:40:00,
2013-08-24 18:45:00,85.3,70.4,30.02,ESE,113,3.2,4.7,61,0.00,,,0.00,WUHU216HW,2013-08-24 23:45:00,
2013-08-24 18:50:00,85.1,70.7,30.02,ESE,113,1.8,3.6,62,0.00,,,0.00,WUHU216HW,2013-08-24 23:50:00,
2013-08-24 18:55:00,85.0,70.5,30.01,ESE,117,2.8,4.7,62,0.00,,,0.00,WUHU216HW,2013-08-24 23:55:00,
2013-08-24 19:00:00,84.6,70.7,30.01,ESE,113,2.5,4.7,63,0.00,,,0.00,WUHU216HW,2013-08-25 00:00:00,
2013-08-24 19:05:00,84.4,70.5,30.01,ESE,102,2.0,4.0,63,0.00,,,0.00,WUHU216HW,2013-08-25 00:05:00,
2013-08-24 19:10:00,84.1,70.1,30.01,SE,135,2.7,2.7,63,0.00,,,0.00,WUHU216HW,2013-08-25 00:10:00,
2013-08-24 19:15:00,83.9,69.9,30.02,ESE,113,2.5,2.7,63,0.00,,,0.00,WUHU216HW,2013-08-25 00:15:00,
2013-08-24 19:20:00,83.5,69.6,30.01,ESE,113,2.1,2.5,63,0.00,,,0.00,WUHU216HW,2013-08-25 00:20:00,
2013-08-24 19:25:00,83.2,69.2,30.02,ESE,122,1.1,2.2,63,0.00,,,0.00,WUHU216HW,2013-08-25 00:25:00,
2013-08-24 19:30:00,82.8,68.9,30.02,East,90,2.5,2.5,63,0.00,,,0.00,WUHU216HW,2013-08-25 00:30:00,
2013-08-24 19:35:00,82.4,68.5,30.02,ESE,113,1.1,2.5,63,0.00,,,0.00,WUHU216HW,2013-08-25 00:35:00,
2013-08-24 19:40:00,82.3,68.8,30.02,SE,135,1.8,2.7,64,0.00,,,0.00,WUHU216HW,2013-08-25 00:40:00,
2013-08-24 19:45:00,82.1,69.0,30.02,SE,135,1.8,2.7,65,0.00,,,0.00,WUHU216HW,2013-08-25 00:45:00,
2013-08-24 19:50:00,81.7,68.8,30.02,ESE,113,1.6,2.2,65,0.00,,,0.00,WUHU216HW,2013-08-25 00:50:00,
2013-08-24 19:55:00,81.5,69.0,30.02,ESE,121,1.5,1.8,66,0.00,,,0.00,WUHU216HW,2013-08-25 00:55:00,
2013-08-24 20:00:00,81.4,68.9,30.02,ESE,113,1.8,1.8,66,0.00,,,0.00,WUHU216HW,2013-08-25 01:00:00,
2013-08-24 20:05:00,81.0,68.6,30.02,ESE,113,0.7,1.8,66,0.00,,,0.00,WUHU216HW,2013-08-25 01:05:00,
2013-08-24 20:10:00,81.0,68.6,30.02,ESE,113,0.6,1.6,66,0.00,,,0.00,WUHU216HW,2013-08-25 01:10:00,
2013-08-24 20:15:00,80.6,68.7,30.03,ESE,113,0.9,0.9,67,0.00,,,0.00,WUHU216HW,2013-08-25 01:15:00,
2013-08-24 20:20:00,80.5,68.5,30.03,ESE,113,0.7,1.1,67,0.00,,,0.00,WUHU216HW,2013-08-25 01:20:00,
2013-08-24 20:25:00,80.3,68.8,30.03,ESE,113,1.1,1.1,68,0.00,,,0.00,WUHU216HW,2013-08-25 01:25:00,
2013-08-24 20:30:00,79.9,68.4,30.03,ESE,113,0.4,1.1,68,0.00,,,0.00,WUHU216HW,2013-08-25 01:30:00,
2013-08-24 20:35:00,79.9,68.4,30.03,ESE,113,0.2,0.4,68,0.00,,,0.00,WUHU216HW,2013-08-25 01:35:00,
2013-08-24 20:40:00,79.6,68.5,30.03,SE,135,1.1,1.1,69,0.00,,,0.00,WUHU216HW,2013-08-25 01:40:00,
2013-08-24 20:45:00,79.6,68.5,30.03,ESE,113,1.0,2.2,69,0.00,,,0.00,WUHU216HW,2013-08-25 01:45:00,
2013-08-24 20:50:00,79.4,68.3,30.04,SE,135,0.7,2.2,69,0.00,,,0.00,WUHU216HW,2013-08-25 01:50:00,
2013-08-24 20:55:00,79.2,68.6,30.04,ESE,113,0.4,2.0,70,0.00,,,0.00,WUHU216HW,2013-08-25 01:55:00,
2013-08-24 21:00:00,79.0,68.4,30.04,ESE,113,2.2,2.2,70,0.00,,,0.00,WUHU216HW,2013-08-25 02:00:00,
2013-08-24 21:05:00,78.8,68.2,30.04,ESE,113,0.8,3.1,70,0.00,,,0.00,WUHU216HW,2013-08-25 02:05:00,
2013-08-24 21:10:00,78.7,68.5,30.04,SE,132,1.3,3.1,71,0.00,,,0.00,WUHU216HW,2013-08-25 02:10:00,
2013-08-24 21:15:00,78.5,68.3,30.04,ESE,113,1.6,2.7,71,0.00,,,0.00,WUHU216HW,2013-08-25 02:15:00,
2013-08-24 21:20:00,78.5,68.3,30.05,ESE,113,0.7,2.7,71,0.00,,,0.00,WUHU216HW,2013-08-25 02:20:00,
2013-08-24 21:25:00,78.1,68.0,30.05,ESE,113,1.0,2.0,71,0.00,,,0.00,WUHU216HW,2013-08-25 02:25:00,
2013-08-24 21:30:00,78.1,68.3,30.06,ESE,120,1.3,1.8,72,0.00,,,0.00,WUHU216HW,2013-08-25 02:30:00,
2013-08-24 21:35:00,77.9,68.2,30.06,SE,135,1.1,1.8,72,0.00,,,0.00,WUHU216HW,2013-08-25 02:35:00,
2013-08-24 21:40:00,77.6,67.9,30.06,ESE,113,0.9,1.8,72,0.00,,,0.00,WUHU216HW,2013-08-25 02:40:00,
2013-08-24 21:45:00,77.4,68.0,30.06,SE,135,1.8,1.8,73,0.00,,,0.00,WUHU216HW,2013-08-25 02:45:00,
2013-08-24 21:50:00,77.2,67.9,30.06,ESE,113,1.3,1.8,73,0.00,,,0.00,WUHU216HW,2013-08-25 02:50:00,
2013-08-24 21:55:00,77.0,68.1,30.06,SE,135,1.8,1.8,74,0.00,,,0.00,WUHU216HW,2013-08-25 02:55:00,
2013-08-24 22:00:00,77.0,68.5,30.06,SE,135,2.2,2.2,75,0.00,,,0.00,WUHU216HW,2013-08-25 03:00:00,
2013-08-24 22:05:00,76.9,68.3,30.06,ESE,113,1.5,2.5,75,0.00,,,0.00,WUHU216HW,2013-08-25 03:05:00,
2013-08-24 22:10:00,76.7,68.1,30.06,SE,124,1.9,2.5,75,0.00,,,0.00,WUHU216HW,2013-08-25 03:10:00,
2013-08-24 22:15:00,76.7,68.1,30.06,ESE,113,1.5,2.0,75,0.00,,,0.00,WUHU216HW,2013-08-25 03:15:00,
2013-08-24 22:20:00,76.5,68.0,30.07,SE,127,1.5,2.5,75,0.00,,,0.00,WUHU216HW,2013-08-25 03:20:00,
2013-08-24 22:25:00,76.3,68.2,30.07,East,94,2.2,2.9,76,0.00,,,0.00,WUHU216HW,2013-08-25 03:25:00,
2013-08-24 22:30:00,76.3,68.2,30.06,ESE,113,1.7,2.9,76,0.00,,,0.00,WUHU216HW,2013-08-25 03:30:00,
2013-08-24 22:35:00,76.1,68.1,30.07,SE,135,2.5,3.4,76,0.00,,,0.00,WUHU216HW,2013-08-25 03:35:00,
2013-08-24 22:40:00,76.0,67.9,30.07,ESE,121,1.5,3.4,76,0.00,,,0.00,WUHU216HW,2013-08-25 03:40:00,
2013-08-24 22:45:00,76.0,67.9,30.07,SE,135,1.8,2.0,76,0.00,,,0.00,WUHU216HW,2013-08-25 03:45:00,
2013-08-24 22:50:00,75.8,67.7,30.07,SE,135,2.1,3.1,76,0.00,,,0.00,WUHU216HW,2013-08-25 03:50:00,
2013-08-24 22:55:00,75.6,68.0,30.07,East,90,1.8,3.1,77,0.00,,,0.00,WUHU216HW,2013-08-25 03:55:00,
2013-08-24 23:00:00,75.6,68.0,30.07,SE,135,1.1,2.5,77,0.00,,,0.00,WUHU216HW,2013-08-25 04:00:00,
2013-08-24 23:01:00,75.6,68.0,30.07,SE,135,1.6,2.5,77,0.00,,,0.00,WUHU216HW,2013-08-25 04:01:00,
2013-08-24 23:02:00,75.6,68.0,30.07,SE,135,1.2,2.5,77,0.00,,,0.00,WUHU216HW,2013-08-25 04:02:00,
2013-08-24 23:07:00,75.4,67.8,30.07,ESE,113,1.8,2.5,77,0.00,,,0.00,WUHU216HW,2013-08-25 04:07:00,
2013-08-24 23:12:00,75.2,68.0,30.07,ESE,113,2.0,2.5,78,0.00,,,0.00,WUHU216HW,2013-08-25 04:12:00,
2013-08-24 23:17:00,75.2,68.0,30.06,ESE,113,2.0,2.7,78,0.00,,,0.00,WUHU216HW,2013-08-25 04:17:00,
2013-08-24 23:22:00,75.1,67.8,30.07,East,90,1.3,2.7,78,0.00,,,0.00,WUHU216HW,2013-08-25 04:22:00,
2013-08-24 23:27:00,74.9,67.6,30.07,ESE,113,0.9,2.0,78,0.00,,,0.00,WUHU216HW,2013-08-25 04:27:00,
2013-08-24 23:32:00,74.9,67.6,30.07,SE,135,0.8,1.6,78,0.00,,,0.00,WUHU216HW,2013-08-25 04:32:00,
2013-08-24 23:37:00,74.7,67.4,30.07,ESE,113,1.6,1.8,78,0.00,,,0.00,WUHU216HW,2013-08-25 04:37:00,
2013-08-24 23:42:00,74.5,67.7,30.07,ESE,123,1.0,1.8,79,0.00,,,0.00,WUHU216HW,2013-08-25 04:42:00,
2013-08-24 23:47:00,74.5,67.7,30.07,ESE,113,1.8,1.8,79,0.00,,,0.00,WUHU216HW,2013-08-25 04:47:00,
2013-08-24 23:52:00,74.5,67.7,30.07,SE,135,1.6,2.5,79,0.00,,,0.00,WUHU216HW,2013-08-25 04:52:00,
2013-08-24 23:57:00,74.3,67.5,30.07,ESE,120,1.0,2.5,79,0.00,,,0.00,WUHU216HW,2013-08-25 04:57:00,